www.pogodaiklimat.ru

Погода и климат >> Архив погоды >> Россия >> Иркутская область >> Карам


ПОГОДА в Караме

  • Прогноз погоды в Караме
  • Монитор погоды в Караме

АРХИВ ПОГОДЫ в Караме

Время (UTC), дата Ветер
(напр.,м/с)
 
Видим.   Явления Облачность Т
(С)
Тd
(С)
f
(%)
Тe
(С)
Тes
(С)
Комфортность P
(гПа)
Po
(гПа)
Тmin
(С)
Tmax
(С)
R
(мм)
R24
(мм)
S
(см)
12 12.06 СВ 2 50 км 8/5 1000 м
[Sc Ci fib]
+15.1 +5.5 53 +15 +15 1014.1 956.5 +18.6
15 12.06 З 1 н/о 3/1 1000 м
[Sc Ci fib]
+7.3 +5.7 90 +6 +6 1016.3 957.1
18 12.06 ЮЗ 1 н/о 3/3 1000 м
[Sc Ci fib]
+5.1 +2.9 86 +4 +4 1016.4 956.7
21 12.06 ЮЗ 1 10 км туман на расстоянии 1/0
[Ci fib]
+2.3 +2.0 98 0 +1 1017.7 957.3
00 13.06 Ю 1 50 км ясно +7.7 +5.2 84 +7 +13 1016.5 957.3 +1.6
03 13.06 штиль 0 50 км ясно +19.6 +8.0 47 +20 +39 опасность
простуды
1011.9 955.4
06 13.06 С 1 50 км 3/3 600 м
[Cu hum]
+23.6 +9.0 39 +24 +37 комфорт 1008.9 953.3
09 13.06 Ю 1 50 км 1/1 600 м
[Cu hum]
+26.0 +8.0 32 +26 +34 жарко 1006.5 951.4
12 13.06 СВ 1 50 км 3/0
[Ci fib]
+24.6 +10.7 42 +26 +27 жарко 1005.5 950.3 +27.9
15 13.06 штиль 0 н/о 6/0
[Ci]
+14.0 +10.2 78 +14 +14 1007.8 950.5
18 13.06 штиль 0 н/о 8/3 600 м
[Cb cap Ci fib]
+11.0 +8.6 85 +10 +10 1008.6 950.5
21 13.06 ЮЗ 1 50 км 9/4 600 м
[Cb cap Cs]
+7.0 +5.2 88 +6 +6 1009.4 950.5
00 14.06 СЗ 1 50 км 9/5 600 м
[Cb cap Cs]
+13.6 +9.1 74 +14 +17 1007.2 949.8 +6.5
03 14.06 ЮЗ 2 50 км 9/4 600 м
[Cu med, cong Cc]
+21.6 +11.4 52 +24 +31 комфорт 1003.8 948.2
06 14.06 С 3 50 км 5/3 600 м
[Cb cap Cc]
+27.9 +9.1 31 +28 +36 жарко 1000.1 945.8
09 14.06 СВ 3 50 км 10/8 600 м
[Cb cap Cs]
+27.3 +13.3 42 +29 +30 жарко 999.0 944.6
12 14.06 штиль 0 50 км 10/10 600 м
[Cb cap]
+22.7 +14.0 58 +26 +26 жарко 999.8 944.6 +30.5
15 14.06 Ю 2 н/о 10/10 600 м
[Cb cap]
+17.1 +13.0 77 +17 +17 1000.9 944.6
18 14.06 ЮВ 1 н/о слаб. ливневой дождь 10/10 600 м
[Cb cap]
+15.6 +13.3 86 +16 +16 1003.2 946.5
21 14.06 штиль 0 50 км {ливн. осадки} 10/4 600 м
[Cb cap Cs]
+14.1 +13.2 94 +14 +14 1002.3 945.4
00 15.06 штиль 0 50 км {ливн. осадки} 10/6 600 м
[Cb cap Cs]
+16.1 +13.6 85 +16 +18 1001.6 945.1 +14.0 0.1
03 15.06 штиль 0 50 км {ливн. осадки} 10/6 600 м
[Cb cap Cs]
+20.0 +11.7 59 +21 +27 комфорт 1001.4 945.5
06 15.06 штиль 0 50 км {ливн. осадки} 10/5 600 м
[Cb cap Cs]
+23.4 +16.0 63 +28 +36 душно 999.1 944.1
09 15.06 ЮВ 4 50 км 9/4 600 м
[Cb cap Cs]
+28.5 +12.3 37 +30 +32 жарко 997.3 943.3
15 15.06 Ю 2 н/о 10/8 600 м
[Cb cap Cs]
+20.5 +11.9 58 +23 +23 комфорт 1002.4 946.6
18 15.06 штиль 0 н/о 9/8 600 м
[Cb cap Cs]
+14.8 +12.4 86 +14 +14 1004.3 947.4
21 15.06 ЮЗ 2 50 км 9/9 600 м
[Cb cap]
+13.9 +12.1 89 +13 +13 1004.5 947.4
00 16.06 штиль 0 50 км 9/6 600 м
[Cb cap Cs]
+16.7 +13.9 84 +17 +19 1004.5 947.9 +13.0
03 16.06 штиль 0 50 км 9/8 600 м
[Cb cap Cs]
+22.5 +14.0 59 +26 +29 жарко 1003.3 947.9
06 16.06 Ю 4 50 км 9/9 600 м
[Cb cap]
+26.1 +10.7 38 +27 +28 жарко 1002.3 947.5
12 16.06 Ю 2 50 км 9/3 1000 м
[Sc Ac trans Cs]
+24.3 +11.4 44 +26 +26 жарко 1001.7 946.6 +28.4
15 16.06 З 2 н/о 10/6 600 м
[Cb cap Ac trans Cs]
+16.4 +12.8 79 +17 +17 1004.4 947.7
18 16.06 ЮЗ 1 н/о 9/5 600 м
[Cb cap Cs]
+13.2 +10.7 85 +13 +13 1005.4 948.1
21 16.06 В 1 20 км 10/6 600 м
[Cb cap Cs]
+11.2 +9.2 87 +11 +11 1006.7 948.9
00 17.06 ЮЗ 1 20 км 9/6 600 м
[Cb cap Cs]
+15.2 +12.7 85 +16 +18 1005.0 948.1
03 17.06 С 1 50 км 9/6 600 м
[Cb cap Cs]
+23.9 +11.8 47 +26 +31 жарко 1003.3 948.1
06 17.06 С 1 50 км 9/4 600 м
[Cb cap Cs]
+27.9 +14.1 43 +30 +39 жарко 1001.6 947.3
09 17.06 ЮВ 4 50 км 5/3 600 м
[Cb cap Ci fib]
+29.9 +8.9 27 +29 +33 жарко 999.7 945.7
12 17.06 Ю 2
{10}
50 км 9/3 600 м
[Cb cap Cs]
+28.9 +8.1 27 +28 +29 жарко 1000.2 945.9 +31.4
15 17.06 ЮЗ 2 н/о 8/3 600 м
[Cb cap Ci fib]
+16.7 +10.7 68 +17 +17 1004.3 947.7
18 17.06 З 2 н/о 8/1 1000 м
[Sc Ci fib]
+11.5 +9.1 85 +10 +10 1007.6 949.8
00 18.06 Ю 3 20 км 9/6 600 м
[Cb cap Cs]
+17.6 +13.2 75 +18 +19 1010.2 953.5 +10.0
06 18.06 Ю 3 10 км слаб. ливневой дождь 10/10 300 м
[Cb cap]
+15.2 +13.8 91 +14 +14 1014.4 957.0

 

Местоположение метеостанции Карам (Иркутская область, Россия): широта 55.15 долгота 107.60 высота над уровнем моря 496 м.

В архиве по умолчанию представлена погода в Караме за последнюю неделю. Архивные данные за месяц целиком и за предыдущие месяцы, начиная с января 2011 года, Вы можете получить, выбрав интересующий диапазон дат из раскрывающегося списка и нажав кнопку "Ввод!".


*Определитесь, кто Вы:
робот инопланетянин человек

Внимание! Время в таблицах - всемирное. Для получения местного времени необходимо прибавить поправку, которая равна 8 ч.

Смотрите также архив погоды в соседних городах и на ближайших метеорологических станциях:

Погода в Тырке (Иркутская область, Россия) (84 км)
Погода в Даване (Бурятия, Россия) (101 км)
Погода в Казачинске (Иркутская область, Россия) (130 км)
Погода в Солнечной (Иркутская область, Россия) (130 км)
Погода в Томпе (Бурятия, Россия) (134 км)
Погода в Нижнеангарске (Бурятия, Россия) (139 км)
Погода в Орлинге (Иркутская область, Россия) (151 км)
Погода в Баргузинском Заповеднике (Бурятия, Россия) (152 км)
Погода на Большом Ушканьем Острове (Бурятия, Россия) (156 км)
Погода в Жигалове (Иркутская область, Россия) (164 км)

Пояснения к столбцам:

Ветер - указаны скорость ветра в м/с - средняя за 10 мин, порывы в срок и между сроками (в фигурных скобках) и направление, откуда дует ветер: С - северный, СВ - северо-восточный, В - восточный, ЮВ - юго-восточный, Ю - южный, ЮЗ - юго-западный, З - западный, СЗ - северо-западный.
Видимость - горизонтальная дальность видимости в метрах или километрах. При видимости от 1 до 10 км при отсутствии осадков обычно наблюдается дымка, при ухудшении видимости до 1 км и менее - туман. В сухую погоду видимость может ухудшаться дымом, пылью или мглою.
Явления - указаны атмосферные явления, наблюдавшиеся в срок или в последний час перед сроком; фигурными скобками обозначены явления, наблюдавшиеся между сроками (за 1-3 часа до срока); квадратными скобками обозначены град или гололедные отложения с указанием их диаметра в мм.
Облачность - указаны через наклонную черту общая и нижняя облачность в баллах и высота нижней границы облаков в метрах; квадратными скобками обозначены формы облаков: Ci - перистые, Cs - перисто-слоистые, Cc - перисто-кучевые, Ac - высококучевые, As - высокослоистые, Sc - слоисто-кучевые, Ns - слоисто-дождевые, Cu - кучевые, Cb - кучево-дождевые. Подробнее классификацию облаков см. в Атласе облаков (PDF).
T - Температура воздуха - температура, измеренная на высоте 2 м над землей.
Td - Температура точки росы - температура, при понижении до которой содержащийся в воздухе водяной пар достигнет насыщения.
f - Относительная влажность воздуха - влажноcть воздуха, измеренная на высоте 2 м над землей.
Te - Эффективная температура - температура, которую ощущает одетый по сезону человек в тени. Характеристика душности погоды. При расчете учитывается влияние влажности воздуха и скорости ветра на теплоощущения человека.
Tes - Эффективная температура на солнце - температура, которую ощущает человек, с поправкой на солнечный нагрев. Характеристика знойности погоды. Зависит от высоты солнца над горизонтом, облачности и скорости ветра. Ночью, в пасмурную погоду, а также при ветре 12 м/с и более поправка равна нулю.
P - Атмосферное давление - приведенное к уровню моря атмосферное давление.
Po - Атмосферное давление - измеренное на уровне метеостанции атмосферное давление.
Tmin - Минимальная температура - минимум температуры воздуха на высоте 2 м над землей.
Tmax - Максимальная температура - максимум температуры воздуха на высоте 2 м над землей.
R - Количество осадков - Количество выпавших осадков за период времени, мм. При наведении курсора мыши на число - период времени, за который выпало указанное количество осадков.
R24 - Количество осадков - Количество выпавших осадков за 24 часа, мм.
S - Снежный покров - Высота снежного покрова, см. При наведении курсора мыши на число - состояние снежного покрова и степень покрытия местности в баллах.